Theta_e
325 326 326 328 329 332 332 332 330 330 330 327 324 322 321 320 318 317 317 317 316 315 315 315 315 315 313 313 313 312 310 308 308 304 304 303 306 307 305 306 307 306 305
322 324 326 328 330 331 332 331 330 330 327 324 323 324 323 319 317 317 316 316 315 315 314 314 313 313 311 312 311 310 307 305 305 301 300 295 297 300 303 302 302 305 303
321 324 326 328 330 330 330 329 329 326 324 323 321 319 319 318 316 315 315 314 314 314 313 313 312 311 310 307 309 307 306 301 302 303 298 293 291 294 298 299 300 303 300
323 325 326 326 327 329 330 327 325 322 320 318 318 317 315 313 313 313 313 312 312 311 309 308 308 309 308 307 306 306 305 303 299 300 300 300 297 291 290 295 296 297 297
323 324 326 328 328 328 327 324 321 317 317 317 318 315 313 312 312 309 306 305 305 304 303 303 304 306 306 307 307 306 305 302 300 298 297 296 295 294 291 288 290 293 295
323 324 325 325 323 323 321 319 316 315 315 315 315 313 309 305 304 302 301 301 301 301 302 302 303 304 304 306 306 305 303 301 300 298 296 293 291 290 290 288 289 290 292
319 318 318 316 316 316 316 316 314 312 314 313 309 306 305 303 302 301 300 300 300 300 301 303 304 304 305 306 304 302 301 300 298 297 295 294 293 293 292 290 288 288 290
315 314 314 314 314 315 315 314 313 312 310 306 305 304 303 302 302 301 301 300 299 300 301 303 304 304 304 303 302 301 301 300 298 296 295 294 293 293 292 290 289 287 287
312 312 313 314 314 314 314 314 313 309 306 305 305 303 303 303 302 301 301 300 300 299 300 302 303 304 303 302 302 300 299 298 297 296 295 294 293 293 292 292 290 288 284
312 313 313 314 315 314 314 314 311 306 305 305 303 303 303 303 303 302 300 299 300 300 300 300 301 301 301 301 300 298 298 296 296 294 294 293 293 293 292 291 291 290 288
312 313 314 315 314 314 313 310 307 306 304 303 303 302 302 302 302 301 299 299 299 299 298 298 299 299 298 299 298 297 297 295 294 294 293 292 292 291 291 291 291 289 289
313 314 314 313 312 312 310 307 306 305 304 303 302 302 302 301 300 299 299 299 298 298 298 298 298 297 297 297 295 295 294 294 293 293 292 291 291 290 290 290 288 288 288
314 314 314 311 311 310 308 306 305 304 303 301 301 301 301 301 299 299 299 298 298 297 298 298 297 296 297 296 296 294 294 293 293 292 291 291 290 288 288 288 287 287 286
313 313 312 311 311 309 306 305 304 304 301 300 300 300 300 300 299 299 298 297 297 297 297 297 297 296 295 294 293 293 293 293 292 292 291 289 288 287 286 284 284 284 283
312 312 310 310 310 308 305 304 305 302 301 300 299 299 300 300 299 298 298 297 297 297 297 296 296 296 295 293 292 292 292 291 290 290 289 288 286 283 283 282 282 282 281
310 310 310 309 307 306 304 304 303 301 301 299 299 299 299 298 298 297 297 296 296 296 296 295 295 295 294 286 285 284 289 289 289 288 287 287 287 286 284 283 282 282 280
309 309 308 308 307 306 305 303 301 301 299 298 298 297 297 296 296 297 296 295 295 296 295 295 294 294 294 286 283 282 286 288 288 287 286 285 285 284 284 283 283 283 284
308 309 309 308 308 307 304 303 301 299 298 297 296 296 296 295 295 295 295 295 296 295 294 294 294 293 289 284 282 282 286 288 287 286 285 285 284 283 281 280 280 281 282
310 310 310 310 309 306 304 301 299 298 296 295 295 296 295 294 294 294 294 295 295 295 294 294 292 292 289 283 282 281 287 287 286 285 285 284 282 281 280 279 279 279 281
310 310 311 310 308 305 302 300 297 296 296 295 296 294 294 294 293 294 294 295 295 294 294 292 292 285 290 282 281 281 286 285 284 285 285 282 280 279 279 279 278 277 279
310 311 310 309 307 304 300 297 298 295 296 294 294 294 294 294 294 294 294 294 294 294 294 291 291 290 288 286 282 281 283 284 283 282 283 284 281 279 279 279 278 278 278
309 308 307 303 302 299 298 295 293 296 294 294 293 293 293 293 293 293 293 293 293 292 291 289 290 290 289 283 282 281 280 281 281 282 283 283 280 279 279 279 278 278 278
306 303 298 295 295 296 295 293 291 293 293 293 292 292 292 292 292 292 292 292 292 291 290 288 288 288 290 289 283 281 280 280 281 283 282 280 280 280 280 280 279 278 280
299 297 295 293 293 293 293 293 293 293 292 291 291 291 290 290 290 291 292 292 291 290 289 288 287 288 288 288 288 284 283 281 281 283 283 282 281 281 279 281 282 281 280
293 294 294 293 291 292 291 291 291 292 290 289 290 290 290 291 291 290 290 291 292 290 290 289 289 289 287 287 287 286 286 285 283 281 282 282 282 281 281 281 281 281 280
291 290 291 291 291 291 291 291 292 291 289 288 289 290 291 291 291 290 289 289 288 286 285 284 287 290 286 284 283 283 282 281 281 281 281 281 281 281 280 280 280 280 279
Wind_Speed
11 10 10 11 13 14 14 13 11 9 7 6 6 6 6 5 5 7 5 5 5 5 4 6 7 7 8 10 10 9 11 11 11 9 9 11 14 11 11 9 9 11 12
12 11 11 12 12 14 12 13 10 9 6 5 5 4 3 6 6 5 5 5 6 7 7 8 8 10 9 11 11 11 9 10 10 10 9 11 10 11 13 12 11 12 8
14 13 13 12 12 12 12 11 11 10 6 7 5 5 5 5 4 4 3 5 5 8 9 10 9 10 10 10 10 10 10 10 9 11 9 12 11 12 11 13 12 13 10
13 14 14 14 11 13 12 11 11 10 6 3 6 7 7 6 5 4 6 6 7 9 11 12 11 10 9 11 10 8 6 10 9 9 9 12 13 13 14 10 11 11 12
15 17 18 18 16 13 11 12 10 9 8 8 6 5 5 4 3 5 7 8 9 11 11 12 12 11 9 10 10 8 8 7 9 9 9 11 10 11 12 13 12 11 11
16 15 15 15 14 12 11 11 11 10 10 10 9 9 7 5 4 5 5 6 6 7 9 11 11 11 11 10 7 5 6 8 9 8 7 8 10 10 11 12 13 14 12
16 17 18 16 16 14 13 11 12 11 11 10 10 9 6 5 6 6 5 7 6 7 8 11 11 10 9 6 6 6 7 9 6 8 8 8 9 9 10 10 12 12 12
16 17 17 15 15 15 14 13 13 13 12 11 10 7 5 4 4 5 5 5 6 7 10 10 10 9 6 3 3 6 7 8 9 8 8 8 8 9 9 10 11 12 13
18 18 17 15 15 14 14 14 14 12 12 10 8 6 5 5 3 3 5 5 7 7 9 10 9 5 6 5 10 7 10 8 4 7 8 8 8 9 10 9 10 10 13
19 17 16 15 14 14 14 14 13 13 11 10 8 7 5 4 0 3 5 6 7 8 9 10 10 6 7 9 11 9 10 8 6 6 9 10 9 10 10 11 10 10 12
18 17 14 14 14 15 15 14 14 13 11 10 8 6 6 4 3 3 4 6 7 9 9 9 10 11 9 12 12 10 12 10 8 9 11 12 13 10 10 10 10 11 12
18 17 15 15 16 16 16 16 13 12 11 9 9 8 6 5 3 4 5 6 8 8 9 9 9 11 11 11 9 10 9 10 10 10 11 13 11 14 13 10 14 12 14
18 16 16 16 16 17 16 15 13 12 11 10 10 9 7 6 5 5 5 6 8 9 8 9 9 10 8 10 11 9 9 10 10 11 12 12 15 14 12 12 12 12 12
17 17 16 17 17 17 16 15 13 12 12 11 9 7 6 6 5 6 6 7 8 9 8 9 8 9 8 9 9 9 9 10 10 11 12 13 13 12 12 12 13 12 12
16 17 16 16 17 17 16 14 13 12 12 10 8 6 6 6 8 7 8 7 8 8 9 7 8 7 8 4 7 10 10 9 10 11 11 11 8 5 6 7 11 12 11
16 17 18 18 18 19 17 15 13 13 11 9 8 6 6 7 8 8 8 9 9 8 9 8 8 7 6 11 7 6 8 10 10 11 10 10 8 3 10 14 11 12 13
14 17 18 18 17 17 16 14 13 12 11 9 7 6 6 7 8 10 10 10 9 8 10 8 9 6 0 11 4 3 7 9 10 10 9 9 7 7 10 12 15 16 16
13 15 14 15 16 15 15 12 13 12 10 8 5 7 6 8 10 11 11 10 9 9 8 8 7 7 8 12 4 5 9 8 9 9 9 9 9 9 9 12 13 14 14
10 11 12 14 14 14 14 13 13 9 6 6 8 7 7 9 10 11 11 10 10 10 8 8 6 7 9 12 5 6 7 7 8 7 8 6 9 10 12 12 13 14 13
8 10 12 12 13 14 14 15 11 8 10 6 6 7 8 10 11 11 11 11 10 10 8 6 5 3 4 11 7 5 5 6 6 7 7 4 3 6 11 11 11 12 13
9 9 10 10 10 10 11 9 5 4 2 2 5 7 9 10 11 11 11 11 11 10 4 2 5 5 5 9 9 4 5 5 5 6 6 5 7 10 13 13 10 10 14
8 4 4 4 5 6 3 4 5 2 4 5 5 8 9 8 8 11 11 12 11 6 5 3 5 5 7 8 10 9 7 5 6 7 6 7 12 14 13 12 10 14 12
2 3 9 11 9 8 6 3 10 5 4 6 7 9 9 8 9 10 10 8 7 4 4 5 5 6 5 6 11 12 9 10 7 6 7 11 13 13 10 6 11 10 7
5 7 13 10 9 9 7 4 4 5 6 7 8 7 8 6 8 7 9 7 6 5 4 5 6 7 4 4 7 7 8 9 7 9 5 8 11 12 11 10 6 5 6
9 10 9 7 9 4 4 4 3 5 6 7 7 7 6 7 8 6 7 8 8 3 7 7 7 2 3 4 2 4 5 4 1 3 6 7 6 6 7 6 6 6 6
9 9 7 5 1 2 3 4 5 5 6 7 6 5 6 7 7 6 7 9 12 7 6 3 2 2 5 4 5 7 7 6 6 6 7 7 5 6 7 7 6 6 6
Wind_Direction
155 163 185 165 168 159 166 167 164 174 197 155 140 142 149 116 105 85 59 51 27 32 7 340 325 323 324 328 312 303 313 313 315 315 303 315 294 306 313 335 348 332 316
171 171 168 177 174 169 163 177 161 172 160 141 87 34 78 59 78 81 74 52 19 357 333 346 325 332 319 314 308 317 313 304 314 320 319 311 309 301 345 330 316 293 309
182 170 172 169 164 166 170 165 163 147 100 106 139 114 110 153 170 97 59 45 3 338 331 328 322 318 311 313 321 310 318 310 319 312 317 308 313 314 307 313 313 315 318
174 170 169 163 161 161 160 159 139 116 126 157 78 45 40 46 43 12 28 327 339 331 328 322 315 312 311 308 306 310 338 302 310 310 317 319 315 313 311 312 307 314 306
168 165 164 160 162 146 153 135 131 126 126 109 116 107 83 86 55 16 350 345 350 338 334 331 331 321 308 305 304 304 316 313 314 324 323 326 311 310 311 313 312 308 306
159 157 151 149 136 143 140 141 147 131 114 104 97 91 82 71 38 14 354 358 330 335 338 336 323 311 297 293 301 340 318 344 320 305 316 313 316 315 320 314 312 308 303
166 162 157 158 154 154 156 155 141 134 128 118 106 98 92 58 55 6 4 332 336 337 337 328 322 311 311 336 3 12 333 297 295 305 315 310 318 312 302 299 299 300 307
174 171 169 167 163 164 162 159 157 148 136 127 117 104 71 76 41 24 344 332 333 332 330 323 317 312 353 7 304 290 286 275 273 324 308 301 304 299 302 298 300 301 300
180 182 179 176 171 170 168 168 165 148 147 138 129 133 125 86 47 345 336 347 336 327 332 317 306 13 289 302 286 279 268 285 289 289 295 305 309 307 306 303 293 298 299
186 189 187 177 176 180 172 175 164 161 149 147 154 164 140 136 239 338 351 338 326 316 318 314 309 274 257 275 276 297 313 281 286 305 308 308 306 307 305 300 303 298 294
191 193 184 183 185 181 174 175 173 160 161 168 159 165 163 183 246 329 334 329 319 315 313 311 308 301 290 289 299 302 279 295 302 299 304 305 322 308 299 301 299 294 295
197 196 187 185 187 184 180 181 172 171 179 164 175 176 190 216 258 308 317 320 307 310 306 303 293 290 305 306 300 285 304 294 299 299 312 318 314 305 307 302 304 307 307
203 196 190 191 191 187 187 179 181 185 175 186 183 192 201 229 261 281 297 302 308 304 299 291 294 302 309 288 289 282 297 305 316 315 320 313 306 314 309 313 316 312 304
208 206 195 197 196 192 190 185 185 181 192 196 201 203 221 244 257 269 285 299 300 296 288 284 311 307 301 303 302 310 309 312 305 306 314 317 314 321 333 314 308 309 315
215 210 205 204 200 196 195 192 186 187 198 206 207 218 220 243 253 264 274 288 291 288 282 288 287 289 287 335 356 324 310 312 310 310 311 313 352 317 312 301 309 317 309
215 209 211 209 205 200 197 196 186 191 196 203 217 231 239 253 265 272 279 275 281 293 288 294 281 279 278 99 67 340 316 307 310 314 314 311 296 298 296 268 272 286 288
217 214 214 214 209 203 199 193 191 190 195 210 221 241 251 264 267 269 274 273 285 287 287 299 297 288 223 117 108 323 303 304 316 312 310 312 317 298 336 333 307 296 283
226 221 217 214 212 206 190 201 194 193 200 212 236 253 265 265 268 273 274 275 278 285 291 288 292 277 111 133 134 287 286 310 314 313 309 306 327 30 350 326 308 308 307
238 230 217 214 209 202 195 199 201 191 199 234 248 262 279 281 280 283 287 287 281 286 288 289 301 285 139 137 159 278 305 309 310 306 301 325 309 28 350 317 314 311 310
239 227 218 209 207 200 193 201 183 193 217 226 285 302 294 291 292 293 292 286 278 277 275 276 266 27 135 153 173 256 302 305 299 301 306 166 358 339 322 316 312 307 314
250 227 219 211 212 181 187 183 232 217 238 29 289 292 302 299 302 300 298 293 285 284 289 267 255 229 219 164 176 215 292 300 310 304 306 317 12 328 316 312 299 317 317
246 210 215 190 161 100 108 117 142 215 4 306 302 296 299 302 304 303 298 290 280 277 262 188 257 224 212 188 188 197 241 312 286 290 305 320 338 316 311 300 311 309 301
46 140 97 88 85 89 90 115 23 11 284 296 306 307 309 309 310 305 291 289 271 251 238 230 213 239 224 202 183 190 209 233 253 280 293 293 295 293 291 280 283 279 305
85 103 104 115 86 63 69 216 257 347 325 299 303 312 298 304 300 303 298 261 264 262 249 243 239 256 287 296 177 201 206 230 239 251 270 301 273 269 264 272 287 312 319
82 80 82 79 71 63 29 11 319 286 290 291 285 286 282 285 284 292 289 305 293 282 253 236 237 257 254 290 330 224 234 240 305 324 290 286 299 309 312 313 319 321 323
84 86 83 84 159 284 279 273 288 289 278 275 268 273 291 293 300 290 284 263 249 260 250 229 250 204 216 176 220 223 220 223 237 261 280 286 290 296 302 305 314 318 319